| time (UTC) | temp F | wind direction | speed MPH | gust MPH | rain 1hr in | rain 24hr in | rain mn in | humidity % | barometer mb |
| 20260831091538 | 44 | 188 | 0.0 | 0.0 | 0.00 | 0.00 | 0.00 | 88 | 1017.3 |
| 20260831090037 | 45 | 188 | 0.0 | 0.0 | 0.00 | 0.00 | 0.00 | 88 | 1017.3 |
| 20260831084540 | 45 | 188 | 0.0 | 0.0 | 0.00 | 0.00 | 0.00 | 87 | 1017.3 |
| 20260831083034 | 45 | 188 | 0.0 | 0.0 | 0.00 | 0.00 | 0.00 | 87 | 1017.2 |
| 20260831081542 | 46 | 188 | 0.0 | 0.0 | 0.00 | 0.00 | 0.00 | 87 | 1017.2 |
| 20260831080034 | 46 | 187 | 0.0 | 0.0 | 0.00 | 0.00 | 0.00 | 87 | 1017.1 |
| 20260831074528 | 46 | 188 | 0.0 | 0.0 | 0.00 | 0.00 | 0.00 | 87 | 1017.2 |
| 20260831073029 | 46 | 188 | 0.0 | 0.0 | 0.00 | 0.00 | 0.00 | 87 | 1017.2 |
| 20260831071529 | 47 | 188 | 0.0 | 0.0 | 0.00 | 0.00 | 0.00 | 86 | 1017.4 |
| 20260831070028 | 47 | 188 | 0.0 | 1.0 | 0.00 | 0.00 | 0.00 | 86 | 1017.4 |
| 20260831064522 | 47 | 188 | 0.0 | 1.0 | 0.00 | 0.00 | 0.00 | 86 | 1017.3 |
| 20260831063025 | 48 | 188 | 0.0 | 2.0 | 0.00 | 0.00 | 0.00 | 86 | 1017.4 |
| 20260831061521 | 48 | 229 | 0.0 | 2.0 | 0.00 | 0.00 | 0.00 | 85 | 1017.4 |
| 20260831060020 | 49 | 230 | 0.0 | 1.0 | 0.00 | 0.00 | 0.00 | 84 | 1017.6 |
| 20260831054520 | 50 | 230 | 0.0 | 0.0 | 0.00 | 0.00 | 0.00 | 83 | 1017.6 |
| 20260831053021 | 50 | 230 | 0.0 | 0.0 | 0.00 | 0.00 | 0.00 | 82 | 1017.7 |
| 20260831051532 | 50 | 230 | 0.0 | 1.0 | 0.00 | 0.00 | 0.00 | 82 | 1017.8 |
| 20260831050019 | 51 | 230 | 0.0 | 2.0 | 0.00 | 0.00 | 0.00 | 81 | 1017.7 |
| 20260831044519 | 52 | 230 | 0.0 | 2.0 | 0.00 | 0.00 | 0.00 | 80 | 1017.7 |
| 20260831043019 | 53 | 229 | 0.0 | 0.0 | 0.00 | 0.00 | 0.00 | 79 | 1017.7 |
| 20260831041528 | 53 | 230 | 0.0 | 2.0 | 0.00 | 0.00 | 0.00 | 78 | 1017.6 |
| 20260831040036 | 54 | 231 | 1.0 | 2.0 | 0.00 | 0.00 | 0.00 | 77 | 1017.5 |
| 20260831034516 | 55 | 207 | 1.0 | 4.0 | 0.00 | 0.00 | 0.00 | 76 | 1017.3 |
| 20260831033016 | 56 | 205 | 0.0 | 3.0 | 0.00 | 0.00 | 0.00 | 75 | 1017.2 |
| 20260831031515 | 57 | 204 | 0.0 | 1.0 | 0.00 | 0.00 | 0.00 | 74 | 1017.1 |
| 20260831030015 | 58 | 204 | 0.0 | 2.0 | 0.00 | 0.00 | 0.00 | 71 | 1017.0 |
| 20260831024515 | 59 | 204 | 0.0 | 1.0 | 0.00 | 0.00 | 0.00 | 69 | 1016.9 |
| 20260831023023 | 60 | 204 | 0.0 | 1.0 | 0.00 | 0.00 | 0.00 | 68 | 1016.9 |
| 20260831021536 | 61 | 204 | 0.0 | 2.0 | 0.00 | 0.00 | 0.00 | 67 | 1016.9 |
| 20260831020014 | 64 | 204 | 0.0 | 6.0 | 0.00 | 0.00 | 0.00 | 58 | 1016.8 |
| 20260831014514 | 66 | 212 | 0.0 | 3.0 | 0.00 | 0.00 | 0.00 | 53 | 1016.7 |
| 20260831013013 | 68 | 217 | 0.0 | 4.0 | 0.00 | 0.00 | 0.00 | 51 | 1016.6 |
| 20260831011512 | 70 | 167 | 0.0 | 6.0 | 0.00 | 0.00 | 0.00 | 46 | 1016.7 |
| 20260831010028 | 69 | 216 | 1.0 | 9.0 | 0.00 | 0.00 | 0.00 | 47 | 1016.7 |
| 20260831004512 | 69 | 166 | 2.0 | 10.0 | 0.00 | 0.00 | 0.00 | 47 | 1016.7 |
| 20260831003010 | 70 | 187 | 5.0 | 11.0 | 0.00 | 0.00 | 0.00 | 45 | 1016.6 |
| 20260831001513 | 72 | 228 | 4.0 | 11.0 | 0.00 | 0.00 | 0.00 | 43 | 1016.4 |
| 20260831000004 | 73 | 204 | 3.0 | 14.0 | 0.00 | 0.00 | 0.00 | 43 | 1016.4 |
| 20260830234602 | 73 | 150 | 1.0 | 11.0 | 0.00 | 0.00 | 0.00 | 42 | 1016.4 |
| 20260830233057 | 71 | 185 | 1.0 | 7.0 | 0.00 | 0.00 | 0.00 | 47 | 1016.4 |
| 20260830231556 | 69 | 41 | 2.0 | 8.0 | 0.00 | 0.00 | 0.00 | 46 | 1016.5 |
| 20260830230057 | 69 | 350 | 4.0 | 9.0 | 0.00 | 0.00 | 0.00 | 46 | 1016.6 |
| 20260830224602 | 69 | 129 | 3.0 | 9.0 | 0.00 | 0.00 | 0.00 | 48 | 1016.5 |
| 20260830223051 | 70 | 73 | 1.0 | 11.0 | 0.00 | 0.00 | 0.00 | 48 | 1016.9 |
| 20260830221548 | 71 | 83 | 0.0 | 11.0 | 0.00 | 0.00 | 0.00 | 43 | 1017.0 |
| 20260830220053 | 71 | 239 | 2.0 | 7.0 | 0.00 | 0.00 | 0.00 | 44 | 1017.3 |
| 20260830214544 | 69 | 141 | 2.0 | 11.0 | 0.00 | 0.00 | 0.00 | 46 | 1017.5 |
| 20260830213040 | 68 | 64 | 1.0 | 8.0 | 0.00 | 0.00 | 0.00 | 48 | 1017.4 |
| 20260830211539 | 68 | 48 | 2.0 | 9.0 | 0.00 | 0.00 | 0.00 | 48 | 1017.5 |
| 20260830210039 | 68 | 300 | 2.0 | 9.0 | 0.00 | 0.00 | 0.00 | 48 | 1017.6 |
| 20260830204539 | 67 | 65 | 3.0 | 10.0 | 0.00 | 0.00 | 0.00 | 49 | 1017.6 |
| 20260830203037 | 67 | 108 | 1.0 | 11.0 | 0.00 | 0.00 | 0.00 | 48 | 1017.7 |
| 20260830201536 | 68 | 84 | 2.0 | 9.0 | 0.00 | 0.00 | 0.00 | 47 | 1017.8 |
| 20260830200035 | 68 | 289 | 3.0 | 10.0 | 0.00 | 0.00 | 0.00 | 45 | 1017.9 |
| 20260830194535 | 69 | 251 | 3.0 | 8.0 | 0.00 | 0.00 | 0.00 | 44 | 1017.9 |
| 20260830193030 | 67 | 184 | 1.0 | 3.0 | 0.00 | 0.00 | 0.00 | 47 | 1017.9 |
| 20260830191526 | 65 | 152 | 2.0 | 5.0 | 0.00 | 0.00 | 0.00 | 48 | 1018.2 |
| 20260830190023 | 64 | 124 | 2.0 | 11.0 | 0.00 | 0.00 | 0.00 | 50 | 1018.3 |
| 20260830184522 | 63 | 166 | 2.0 | 9.0 | 0.00 | 0.00 | 0.00 | 49 | 1018.4 |
| 20260830183018 | 63 | 75 | 4.0 | 12.0 | 0.00 | 0.00 | 0.00 | 50 | 1018.5 |
| 20260830181522 | 62 | 359 | 5.0 | 11.0 | 0.00 | 0.00 | 0.00 | 50 | 1018.7 |
| 20260830180012 | 61 | 73 | 4.0 | 13.0 | 0.00 | 0.00 | 0.00 | 52 | 1018.8 |
| 20260830174522 | 61 | 4 | 3.0 | 13.0 | 0.00 | 0.00 | 0.00 | 53 | 1018.7 |
| 20260830173009 | 60 | 37 | 4.0 | 14.0 | 0.00 | 0.00 | 0.00 | 54 | 1018.7 |
| 20260830171506 | 60 | 30 | 8.0 | 15.0 | 0.00 | 0.00 | 0.00 | 54 | 1018.8 |
| 20260830170005 | 59 | 25 | 6.0 | 13.0 | 0.00 | 0.00 | 0.00 | 57 | 1018.6 |
| 20260830164606 | 58 | 47 | 4.0 | 14.0 | 0.00 | 0.00 | 0.00 | 59 | 1018.8 |
| 20260830163103 | 57 | 33 | 3.0 | 15.0 | 0.00 | 0.00 | 0.00 | 64 | 1018.8 |
| 20260830161612 | 55 | 35 | 4.0 | 10.0 | 0.00 | 0.00 | 0.00 | 66 | 1019.0 |
| 20260830160048 | 51 | 60 | 4.0 | 9.0 | 0.00 | 0.00 | 0.00 | 76 | 1018.9 |
| 20260830154546 | 46 | 37 | 0.0 | 4.0 | 0.00 | 0.00 | 0.00 | 87 | 1019.0 |
| 20260830153047 | 45 | 154 | 1.0 | 4.0 | 0.00 | 0.00 | 0.00 | 89 | 1019.1 |
| 20260830151545 | 44 | 337 | 1.0 | 4.0 | 0.00 | 0.00 | 0.00 | 90 | 1019.1 |
| 20260830150047 | 42 | 75 | 0.0 | 7.0 | 0.00 | 0.00 | 0.00 | 90 | 1019.1 |
| 20260830144546 | 41 | 114 | 0.0 | 2.0 | 0.00 | 0.00 | 0.00 | 90 | 1019.2 |
| 20260830143046 | 41 | 114 | 0.0 | 3.0 | 0.00 | 0.00 | 0.00 | 90 | 1019.2 |
| 20260830141541 | 41 | 98 | 0.0 | 0.0 | 0.00 | 0.00 | 0.00 | 90 | 1019.1 |
| 20260830140039 | 41 | 77 | 2.0 | 5.0 | 0.00 | 0.00 | 0.00 | 90 | 1018.9 |
| 20260830134546 | 40 | 320 | 1.0 | 4.0 | 0.00 | 0.00 | 0.00 | 90 | 1018.8 |
| 20260830133038 | 41 | 237 | 2.0 | 4.0 | 0.00 | 0.00 | 0.00 | 90 | 1018.8 |
| 20260830131536 | 41 | 246 | 0.0 | 3.0 | 0.00 | 0.00 | 0.00 | 90 | 1018.8 |
| 20260830130032 | 41 | 261 | 2.0 | 8.0 | 0.00 | 0.00 | 0.00 | 90 | 1018.7 |
| 20260830124529 | 41 | 92 | 0.0 | 3.0 | 0.00 | 0.00 | 0.00 | 90 | 1018.6 |
| 20260830123030 | 40 | 122 | 0.0 | 3.0 | 0.00 | 0.00 | 0.00 | 90 | 1018.7 |
| 20260830121530 | 41 | 232 | 0.0 | 2.0 | 0.00 | 0.00 | 0.00 | 90 | 1018.6 |
| 20260830120025 | 41 | 231 | 0.0 | 0.0 | 0.00 | 0.00 | 0.00 | 90 | 1018.6 |
| 20260830114524 | 41 | 233 | 0.0 | 4.0 | 0.00 | 0.00 | 0.00 | 90 | 1018.6 |
| 20260830113024 | 41 | 214 | 0.0 | 1.0 | 0.00 | 0.00 | 0.00 | 90 | 1018.5 |
| 20260830111520 | 42 | 199 | 0.0 | 2.0 | 0.00 | 0.00 | 0.00 | 89 | 1018.5 |
| 20260830110018 | 42 | 207 | 0.0 | 3.0 | 0.00 | 0.00 | 0.00 | 89 | 1018.4 |
| 20260830104516 | 42 | 235 | 0.0 | 2.0 | 0.00 | 0.00 | 0.00 | 89 | 1018.4 |
| 20260830103017 | 43 | 235 | 0.0 | 2.0 | 0.00 | 0.00 | 0.00 | 89 | 1018.3 |
| 20260830101512 | 43 | 235 | 0.0 | 2.0 | 0.00 | 0.00 | 0.00 | 88 | 1018.2 |
| 20260830100011 | 43 | 271 | 0.0 | 2.0 | 0.00 | 0.00 | 0.00 | 88 | 1018.2 |
| 20260830094509 | 44 | 271 | 0.0 | 4.0 | 0.00 | 0.00 | 0.00 | 86 | 1018.1 |
| 20260830093008 | 45 | 343 | 0.0 | 3.0 | 0.00 | 0.00 | 0.00 | 86 | 1018.2 |